#timestamp,LO_Frequency,Hit 
1505430015.6,286046983.9,N
1505430035.5,286046992.2,N
1505430055.3,286046994.2,N
1505430075.1,286046995.4,N
1505430095.9,286046996.5,N
1505430115.7,286046997.6,N
1505430135.5,286046993.1,N
1505430155.4,286046989.5,N
1505430175.2,286046992.9,N
1505430195.0,286046998.2,N
1505430195.9,286046998.2,N
1505430215.8,286046999.2,N
1505430235.6,286046999.9,N
1505430255.4,286047000.9,N
1505430275.3,286046993.3,N
1505430295.1,286046988.9,N
1505430296.0,286046988.9,N
1505430315.8,286046988.0,N
1505430335.7,286046991.3,N
1505430355.5,286046992.9,N
1505430375.3,286046994.0,N
1505430395.1,286046998.0,N
1505430415.9,286046999.8,N
1505430435.7,286047000.3,N
1505430455.5,286046996.8,N
1505430475.4,286046993.4,N
1505430495.2,286046990.4,N
1505430515.0,286046987.9,N
1505430515.9,286046987.9,N
1505430535.8,286046986.7,N
1505430555.6,286046985.6,P
1505430575.4,286047001.0,N
1505430595.3,286047003.2,N
1505430615.1,286047005.6,N
1505430635.8,286047001.3,N
1505430655.7,286047005.9,N
1505430675.5,286047013.8,N
1505430695.3,286047019.6,N
1505430715.2,286047017.9,N
1505430735.9,286047015.0,N
1505430755.7,286047016.5,N
1505430775.5,286047022.7,N
1505430795.4,286047015.7,N
1505430815.2,286047018.1,N
1505430835.0,286047014.0,N
1505430835.9,286047014.0,N
1505430855.8,286047006.6,N
1505430875.6,286047004.9,N
1505430895.4,286047004.2,N
1505430915.3,286047003.9,N
1505430935.1,286047004.3,N
1505430936.0,286047004.3,N
1505430955.8,286046998.3,N
1505430975.7,286047005.9,N
1505430995.5,286047003.1,N
1505431015.3,286047002.3,N
1505431035.1,286047007.9,N
1505431055.9,286047023.4,N
1505431075.7,286047033.9,P
1505431095.6,286047032.2,N
1505431115.4,286047033.3,N
1505431135.2,286047034.0,P
1505431155.1,286047009.1,N
1505431156.0,286047009.1,N
1505431175.8,286047003.1,N
1505431195.6,286047002.4,N
1505431215.5,286047006.2,N
1505431235.3,286046999.5,N
1505431255.1,286046994.7,N
1505431275.9,286046997.6,N
1505431295.7,286047001.5,N
1505431315.5,286047001.3,N
1505431335.3,286046998.5,N
1505431355.2,286047001.5,N
1505431375.0,286046997.8,N
1505431375.9,286046997.8,N
1505431395.7,286046996.7,N
1505431415.6,286047002.4,N
1505431435.4,286047001.6,N
1505431455.2,286047006.7,N
1505431475.1,286047009.1,N
1505431476.0,286047009.1,N
1505431495.8,286047011.4,N
1505431515.6,286047018.1,N
1505431535.5,286047018.2,N
1505431555.3,286047013.1,N
1505431575.1,286047015.4,N
1505431595.9,286047015.1,N
1505431615.7,286047006.1,N
1505431635.5,286047000.2,N
1505431655.3,286046998.1,N
1505431675.2,286046997.3,N
1505431695.0,286046993.5,N
1505431695.9,286046993.5,N
1505431715.7,286046999.5,N
1505431735.6,286047000.4,N
1505431755.4,286046997.0,N
1505431775.2,286046995.5,N
1505431795.1,286047010.1,N
1505431796.0,286047010.1,N
1505431815.8,286047014.0,N
1505431835.6,286047020.7,N
1505431855.5,286047026.9,P
1505431875.3,286047028.0,N
1505431895.1,286047034.2,P
1505431915.9,286047037.8,P
1505431935.7,286047010.1,N
1505431955.5,286046999.8,N
1505431975.4,286046990.1,N
1505431995.2,286046992.5,N
1505432015.0,286046988.5,N
1505432015.9,286046988.5,N
1505432035.8,286047002.7,N
1505432055.6,286047005.8,N
1505432075.4,286047004.9,N
1505432095.3,286047007.4,N
1505432115.1,286047003.9,N
1505432116.0,286047003.9,N
1505432135.8,286047008.5,N
1505432155.7,286047005.9,N
1505432175.5,286047006.3,N
1505432195.3,286047009.5,N
1505432215.2,286047017.2,N
1505432235.9,286047012.8,N
1505432255.7,286047006.3,N
1505432275.5,286047000.7,N
1505432295.4,286046992.4,N
1505432315.2,286046985.0,N
1505432335.0,286046983.7,N
1505432335.9,286046983.7,N
1505432355.8,286046986.7,N
1505432375.6,286046983.8,N
1505432395.4,286046992.3,N
1505432415.3,286046989.0,N
1505432435.1,286047008.7,N
1505432436.0,286047008.7,N
1505432455.8,286047010.2,N
1505432475.7,286047008.3,N
1505432495.0,286047008.2,N
1505432495.9,286047008.2,N
1505432515.8,286047009.4,N
1505432535.6,286047008.3,N
1505432555.4,286047004.7,N
1505432575.3,286047005.9,N
1505432595.1,286047000.1,N
1505432596.0,286047000.1,N
1505432615.8,286046999.6,N
1505432635.6,286047005.3,N
1505432655.5,286047008.2,N
1505432675.3,286046998.2,N
1505432695.1,286046999.2,N
1505432715.9,286046994.4,N
1505432735.7,286046987.8,N
1505432755.5,286046987.1,N
1505432775.4,286046985.9,N
1505432795.2,286046989.2,N
1505432815.0,286046992.9,N
1505432815.9,286046992.9,N
1505432835.8,286046992.3,N
1505432855.6,286046991.7,N
1505432875.4,286046988.9,N
1505432895.3,286046989.1,N
1505432915.1,286046977.8,N
1505432916.0,286046977.8,N
1505432935.8,286046975.6,N
1505432955.7,286046977.1,N
1505432975.5,286046978.2,N
1505432995.3,286046975.6,N
1505433015.1,286046974.5,N
1505433035.9,286046978.8,N
1505433055.7,286046972.1,N
1505433075.5,286046972.8,N
1505433095.4,286046972.2,N
1505433115.2,286046970.8,N
1505433135.0,286046968.2,N
1505433135.9,286046968.2,N
1505433155.8,286046968.4,N
1505433175.6,286046972.8,N
1505433195.4,286046977.7,N
1505433215.3,286046988.0,N
1505433235.1,286046991.6,N
1505433236.0,286046991.6,N
1505433255.8,286046991.8,N
1505433275.7,286047000.9,N
1505433295.5,286046994.9,N
1505433315.3,286046988.5,N
1505433335.2,286046990.0,N
1505433355.9,286046992.6,N
1505433375.7,286046993.5,N
1505433395.5,286046997.5,N
1505433415.4,286046996.5,N
1505433435.2,286047000.1,N
1505433455.0,286046997.3,N
1505433455.9,286046997.3,N
1505433475.8,286047002.1,N
1505433495.6,286047010.4,N
1505433515.4,286047013.2,N
1505433535.3,286047012.9,N
1505433555.1,286047006.9,N
1505433575.8,286047000.6,N
1505433595.7,286047004.3,N
